{"data":{"norad_id":61920,"epoch":"2026-05-25T04:56:50.508096Z","epoch_age_seconds":54244,"freshness":"FRESH","line1":"1 61920U 24207J   26145.20614014  .00013434  00000+0  49674-3 0  9996","line2":"2 61920  42.9986 209.6704 0001155 271.5486  88.5234 15.27585468 86422","mean_motion":15.27585468,"eccentricity":0.0001155,"inclination_deg":42.9986,"raan_deg":209.6704,"arg_perigee_deg":271.5486,"mean_anomaly_deg":88.5234,"bstar":0.00049674,"rev_number":8642,"period_min":94.266411285342,"perigee_km":482.24025782639,"apogee_km":483.82518803239,"semimajor_km":6861.1697229294,"source":"CELESTRAK","updated_at":"2026-05-25T13:38:19.481943Z"}}